Year,Month,Day,Hour,Minute,Value (Times are PST for temperature in C)
2015,10,15,00,00,8.20
2015,10,15,00,01,8.20
2015,10,15,00,02,8.20
2015,10,15,00,03,8.20
2015,10,15,00,04,8.20
2015,10,15,00,05,8.20
2015,10,15,00,06,8.20
2015,10,15,00,07,8.20
2015,10,15,00,08,8.20
2015,10,15,00,09,8.20
2015,10,15,00,10,8.20
2015,10,15,00,11,8.20
2015,10,15,00,12,8.20
2015,10,15,00,13,8.20
2015,10,15,00,14,8.20
2015,10,15,00,15,8.20
2015,10,15,00,16,8.20
2015,10,15,00,17,8.20
2015,10,15,00,18,8.20
2015,10,15,00,19,8.20
2015,10,15,00,20,8.20
2015,10,15,00,21,8.20
2015,10,15,00,22,8.30
2015,10,15,00,23,8.30
2015,10,15,00,24,8.30
2015,10,15,00,25,8.30
2015,10,15,00,26,8.30
2015,10,15,00,27,8.30
2015,10,15,00,28,8.30
2015,10,15,00,29,8.30
2015,10,15,00,30,8.30
2015,10,15,00,31,8.30
2015,10,15,00,32,8.30
2015,10,15,00,33,8.30
2015,10,15,00,34,8.30
2015,10,15,00,35,8.30
2015,10,15,00,36,8.20
2015,10,15,00,37,8.20
2015,10,15,00,38,8.20
2015,10,15,00,39,8.20
2015,10,15,00,40,8.20
2015,10,15,00,41,8.20
2015,10,15,00,42,8.20
2015,10,15,00,43,8.20
2015,10,15,00,44,8.20
2015,10,15,00,45,8.20
2015,10,15,00,46,8.20
2015,10,15,00,47,8.20
2015,10,15,00,48,8.20
2015,10,15,00,49,8.20
2015,10,15,00,50,8.20
2015,10,15,00,51,8.20
2015,10,15,00,52,8.20
2015,10,15,00,53,8.20
2015,10,15,00,54,8.20
2015,10,15,00,55,8.20
2015,10,15,00,56,8.20
2015,10,15,00,57,8.20
2015,10,15,00,58,8.20
2015,10,15,00,59,8.20
2015,10,15,01,00,8.20
2015,10,15,01,01,8.20
2015,10,15,01,02,8.30
2015,10,15,01,03,8.40
2015,10,15,01,04,8.60
2015,10,15,01,05,8.70
2015,10,15,01,06,8.80
2015,10,15,01,07,8.90
2015,10,15,01,08,9.00
2015,10,15,01,09,9.10
2015,10,15,01,10,9.20
2015,10,15,01,11,9.20
2015,10,15,01,12,9.30
2015,10,15,01,13,9.40
2015,10,15,01,14,9.40
2015,10,15,01,15,9.50
2015,10,15,01,16,9.50
2015,10,15,01,17,9.60
2015,10,15,01,18,9.60
2015,10,15,01,19,9.60
2015,10,15,01,20,9.70
2015,10,15,01,21,9.70
2015,10,15,01,22,9.60
2015,10,15,01,23,9.60
2015,10,15,01,24,9.60
2015,10,15,01,25,9.50
2015,10,15,01,26,9.50
2015,10,15,01,27,9.50
2015,10,15,01,28,9.50
2015,10,15,01,29,9.50
2015,10,15,01,30,9.50
2015,10,15,01,31,9.40
2015,10,15,01,32,9.40
2015,10,15,01,33,9.40
2015,10,15,01,34,9.40
2015,10,15,01,35,9.40
2015,10,15,01,36,9.40
2015,10,15,01,37,9.50
2015,10,15,01,38,9.60
2015,10,15,01,39,9.70
2015,10,15,01,40,9.80
2015,10,15,01,41,9.90
2015,10,15,01,42,10.00
2015,10,15,01,43,10.10
2015,10,15,01,44,10.20
2015,10,15,01,45,10.20
2015,10,15,01,46,10.30
2015,10,15,01,47,10.30
2015,10,15,01,48,10.40
2015,10,15,01,49,10.40
2015,10,15,01,50,10.40
2015,10,15,01,51,10.40
2015,10,15,01,52,10.50
2015,10,15,01,53,10.60
2015,10,15,01,54,10.60
2015,10,15,01,55,10.60
2015,10,15,01,56,10.60
2015,10,15,01,57,10.60
2015,10,15,01,58,10.60
2015,10,15,01,59,10.60
2015,10,15,02,00,10.60
2015,10,15,02,01,10.70
2015,10,15,02,02,10.70
2015,10,15,02,03,10.70
2015,10,15,02,04,10.70
2015,10,15,02,05,10.70
2015,10,15,02,06,10.80
2015,10,15,02,07,10.80
2015,10,15,02,08,10.80
2015,10,15,02,09,10.80
2015,10,15,02,10,10.90
2015,10,15,02,11,10.90
2015,10,15,02,12,10.90
2015,10,15,02,13,10.90
2015,10,15,02,14,10.90
2015,10,15,02,15,10.90
2015,10,15,02,16,10.90
2015,10,15,02,17,11.10
2015,10,15,02,18,11.10
2015,10,15,02,19,11.10
2015,10,15,02,20,11.10
2015,10,15,02,21,11.10
2015,10,15,02,22,11.10
2015,10,15,02,23,11.10
2015,10,15,02,24,11.10
2015,10,15,02,25,11.10
2015,10,15,02,26,11.10
2015,10,15,02,27,11.10
2015,10,15,02,28,11.10
2015,10,15,02,29,11.10
2015,10,15,02,30,11.10
2015,10,15,02,31,11.10
2015,10,15,02,32,11.20
2015,10,15,02,33,11.20
2015,10,15,02,34,11.30
2015,10,15,02,35,11.30
2015,10,15,02,36,11.30
2015,10,15,02,37,11.40
2015,10,15,02,38,11.40
2015,10,15,02,39,11.40
2015,10,15,02,40,11.40
2015,10,15,02,41,11.40
2015,10,15,02,42,11.40
2015,10,15,02,43,11.40
2015,10,15,02,44,11.40
2015,10,15,02,45,11.40
2015,10,15,02,46,11.40
2015,10,15,02,47,11.40
2015,10,15,02,48,11.40
2015,10,15,02,49,11.40
2015,10,15,02,50,11.40
2015,10,15,02,51,11.40
2015,10,15,02,52,11.40
2015,10,15,02,53,11.30
2015,10,15,02,54,11.30
2015,10,15,02,55,11.30
2015,10,15,02,56,11.30
2015,10,15,02,57,11.30
2015,10,15,02,58,11.30
2015,10,15,02,59,11.20
2015,10,15,03,00,11.20
2015,10,15,03,01,11.20
2015,10,15,03,02,11.20
2015,10,15,03,03,11.20
2015,10,15,03,04,11.10
2015,10,15,03,05,11.10
2015,10,15,03,06,11.10
2015,10,15,03,07,11.10
2015,10,15,03,08,11.00
2015,10,15,03,09,10.90
2015,10,15,03,10,10.90
2015,10,15,03,11,10.90
2015,10,15,03,12,10.90
2015,10,15,03,13,10.90
2015,10,15,03,14,10.90
2015,10,15,03,15,10.90
2015,10,15,03,16,10.90
2015,10,15,03,17,10.90
2015,10,15,03,18,10.80
2015,10,15,03,19,10.80
2015,10,15,03,20,10.80
2015,10,15,03,21,10.70
2015,10,15,03,22,10.70
2015,10,15,03,23,10.70
2015,10,15,03,24,10.70
2015,10,15,03,25,10.70
2015,10,15,03,26,10.70
2015,10,15,03,27,10.80
2015,10,15,03,28,10.80
2015,10,15,03,29,10.90
2015,10,15,03,30,10.90
2015,10,15,03,31,10.90
2015,10,15,03,32,10.90
2015,10,15,03,33,10.90
2015,10,15,03,34,10.90
2015,10,15,03,35,10.90
2015,10,15,03,36,10.90
2015,10,15,03,37,10.90
2015,10,15,03,38,10.90
2015,10,15,03,39,10.90
2015,10,15,03,40,10.90
2015,10,15,03,41,10.80
2015,10,15,03,42,10.80
2015,10,15,03,43,10.80
2015,10,15,03,44,10.70
2015,10,15,03,45,10.70
2015,10,15,03,46,10.70
2015,10,15,03,47,10.70
2015,10,15,03,48,10.70
2015,10,15,03,49,10.60
2015,10,15,03,50,10.60
2015,10,15,03,51,10.60
2015,10,15,03,52,10.60
2015,10,15,03,53,10.60
2015,10,15,03,54,10.70
2015,10,15,03,55,10.70
2015,10,15,03,56,10.70
2015,10,15,03,57,10.80
2015,10,15,03,58,10.80
2015,10,15,03,59,10.80
2015,10,15,04,00,10.90
2015,10,15,04,01,10.90
2015,10,15,04,02,10.90
2015,10,15,04,03,10.90
2015,10,15,04,04,11.00
2015,10,15,04,05,11.10
2015,10,15,04,06,11.10
2015,10,15,04,07,11.20
2015,10,15,04,08,11.20
2015,10,15,04,09,11.30
2015,10,15,04,10,11.30
2015,10,15,04,11,11.30
2015,10,15,04,12,11.30
2015,10,15,04,13,11.30
2015,10,15,04,14,11.30
2015,10,15,04,15,11.30
2015,10,15,04,16,11.30
2015,10,15,04,17,11.30
2015,10,15,04,18,11.20
2015,10,15,04,19,11.20
2015,10,15,04,20,11.10
2015,10,15,04,21,11.10
2015,10,15,04,22,11.00
2015,10,15,04,23,10.90
2015,10,15,04,24,10.90
2015,10,15,04,25,10.90
2015,10,15,04,26,10.90
2015,10,15,04,27,10.90
2015,10,15,04,28,10.90
2015,10,15,04,29,10.90
2015,10,15,04,30,10.90
2015,10,15,04,31,10.90
2015,10,15,04,32,10.90
2015,10,15,04,33,10.90
2015,10,15,04,34,10.90
2015,10,15,04,35,10.90
2015,10,15,04,36,10.90
2015,10,15,04,37,10.90
2015,10,15,04,38,10.90
2015,10,15,04,39,10.90
2015,10,15,04,40,10.90
2015,10,15,04,41,10.90
2015,10,15,04,42,10.90
2015,10,15,04,43,10.90
2015,10,15,04,44,10.90
2015,10,15,04,45,11.00
2015,10,15,04,46,11.10
2015,10,15,04,47,11.10
2015,10,15,04,48,11.10
2015,10,15,04,49,11.10
2015,10,15,04,50,11.10
2015,10,15,04,51,11.20
2015,10,15,04,52,11.20
2015,10,15,04,53,11.20
2015,10,15,04,54,11.20
2015,10,15,04,55,11.20
2015,10,15,04,56,11.20
2015,10,15,04,57,11.20
2015,10,15,04,58,11.20
2015,10,15,04,59,11.20
2015,10,15,05,00,11.10
2015,10,15,05,01,11.10
2015,10,15,05,02,11.10
2015,10,15,05,03,11.10
2015,10,15,05,04,11.20
2015,10,15,05,05,11.10
2015,10,15,05,06,11.20
2015,10,15,05,07,11.20
2015,10,15,05,08,11.20
2015,10,15,05,09,11.10
2015,10,15,05,10,11.10
2015,10,15,05,11,11.10
2015,10,15,05,12,11.10
2015,10,15,05,13,11.10
2015,10,15,05,14,11.10
2015,10,15,05,15,11.10
2015,10,15,05,16,11.10
2015,10,15,05,17,11.10
2015,10,15,05,18,11.10
2015,10,15,05,19,11.10
2015,10,15,05,20,11.10
2015,10,15,05,21,11.10
2015,10,15,05,22,11.10
2015,10,15,05,23,11.10
2015,10,15,05,24,11.10
2015,10,15,05,25,11.20
2015,10,15,05,26,11.20
2015,10,15,05,27,11.20
2015,10,15,05,28,11.20
2015,10,15,05,29,11.20
2015,10,15,05,30,11.10
2015,10,15,05,31,11.10
2015,10,15,05,32,11.10
2015,10,15,05,33,11.10
2015,10,15,05,34,11.10
2015,10,15,05,35,11.10
2015,10,15,05,36,11.00
2015,10,15,05,37,10.90
2015,10,15,05,38,10.90
2015,10,15,05,39,10.90
2015,10,15,05,40,11.00
2015,10,15,05,41,11.10
2015,10,15,05,42,11.10
2015,10,15,05,43,11.10
2015,10,15,05,44,11.10
2015,10,15,05,45,11.10
2015,10,15,05,46,11.10
2015,10,15,05,47,11.10
2015,10,15,05,48,11.10
2015,10,15,05,49,11.10
2015,10,15,05,50,11.00
2015,10,15,05,51,10.90
2015,10,15,05,52,10.80
2015,10,15,05,53,10.70
2015,10,15,05,54,10.70
2015,10,15,05,55,10.60
2015,10,15,05,56,10.60
2015,10,15,05,57,10.60
2015,10,15,05,58,10.60
2015,10,15,05,59,10.60
2015,10,15,06,00,10.60
2015,10,15,06,01,10.60
2015,10,15,06,02,10.60
2015,10,15,06,03,10.50
2015,10,15,06,04,10.40
2015,10,15,06,05,10.40
2015,10,15,06,06,10.50
2015,10,15,06,07,10.60
2015,10,15,06,08,10.60
2015,10,15,06,09,10.60
2015,10,15,06,10,10.60
2015,10,15,06,11,10.50
2015,10,15,06,12,10.40
2015,10,15,06,13,10.40
2015,10,15,06,14,10.40
2015,10,15,06,15,10.40
2015,10,15,06,16,10.40
2015,10,15,06,17,10.40
2015,10,15,06,18,10.40
2015,10,15,06,19,10.40
2015,10,15,06,20,10.40
2015,10,15,06,21,10.40
2015,10,15,06,22,10.40
2015,10,15,06,23,10.40
2015,10,15,06,24,10.40
2015,10,15,06,25,10.40
2015,10,15,06,26,10.40
2015,10,15,06,27,10.40
2015,10,15,06,28,10.40
2015,10,15,06,29,10.40
2015,10,15,06,30,10.30
2015,10,15,06,31,10.30
2015,10,15,06,32,10.30
2015,10,15,06,33,10.30
2015,10,15,06,34,10.30
2015,10,15,06,35,10.30
2015,10,15,06,36,10.20
2015,10,15,06,37,10.20
2015,10,15,06,38,10.10
2015,10,15,06,39,10.10
2015,10,15,06,40,10.10
2015,10,15,06,41,10.10
2015,10,15,06,42,10.00
2015,10,15,06,43,9.90
2015,10,15,06,44,9.90
2015,10,15,06,45,9.90
2015,10,15,06,46,9.90
2015,10,15,06,47,9.90
2015,10,15,06,48,9.80
2015,10,15,06,49,9.80
2015,10,15,06,50,9.80
2015,10,15,06,51,9.80
2015,10,15,06,52,9.80
2015,10,15,06,53,9.80
2015,10,15,06,54,9.90
2015,10,15,06,55,9.90
2015,10,15,06,56,9.90
2015,10,15,06,57,9.90
2015,10,15,06,58,9.90
2015,10,15,06,59,9.90
2015,10,15,07,00,9.90
2015,10,15,07,01,9.90
2015,10,15,07,02,9.90
2015,10,15,07,03,10.00
2015,10,15,07,04,10.10
2015,10,15,07,05,10.10
2015,10,15,07,06,10.10
2015,10,15,07,07,10.10
2015,10,15,07,08,10.10
2015,10,15,07,09,10.20
2015,10,15,07,10,10.20
2015,10,15,07,11,10.30
2015,10,15,07,12,10.30
2015,10,15,07,13,10.40
2015,10,15,07,14,10.40
2015,10,15,07,15,10.40
2015,10,15,07,16,10.30
2015,10,15,07,17,10.30
2015,10,15,07,18,10.20
2015,10,15,07,19,10.20
2015,10,15,07,20,10.20
2015,10,15,07,21,10.20
2015,10,15,07,22,10.30
2015,10,15,07,23,10.30
2015,10,15,07,24,10.40
2015,10,15,07,25,10.40
2015,10,15,07,26,10.50
2015,10,15,07,27,10.60
2015,10,15,07,28,10.60
2015,10,15,07,29,10.70
2015,10,15,07,30,10.70
2015,10,15,07,31,10.70
2015,10,15,07,32,10.70
2015,10,15,07,33,10.80
2015,10,15,07,34,10.80
2015,10,15,07,35,10.90
2015,10,15,07,36,10.90
2015,10,15,07,37,10.90
2015,10,15,07,38,11.00
2015,10,15,07,39,11.10
2015,10,15,07,40,11.10
2015,10,15,07,41,11.20
2015,10,15,07,42,11.20
2015,10,15,07,43,11.20
2015,10,15,07,44,11.20
2015,10,15,07,45,11.20
2015,10,15,07,46,11.20
2015,10,15,07,47,11.20
2015,10,15,07,48,11.20
2015,10,15,07,49,11.10
2015,10,15,07,50,11.10
2015,10,15,07,51,11.10
2015,10,15,07,52,11.00
2015,10,15,07,53,10.90
2015,10,15,07,54,10.90
2015,10,15,07,55,10.90
2015,10,15,07,56,10.90
2015,10,15,07,57,10.90
2015,10,15,07,58,10.90
2015,10,15,07,59,10.90
2015,10,15,08,00,10.80
2015,10,15,08,01,10.80
2015,10,15,08,02,10.80
2015,10,15,08,03,10.80
2015,10,15,08,04,10.80
2015,10,15,08,05,10.80
2015,10,15,08,06,10.80
2015,10,15,08,07,10.80
2015,10,15,08,08,10.80
2015,10,15,08,09,10.70
2015,10,15,08,10,10.70
2015,10,15,08,11,10.70
2015,10,15,08,12,10.60
2015,10,15,08,13,10.60
2015,10,15,08,14,10.60
2015,10,15,08,15,10.60
2015,10,15,08,16,10.70
2015,10,15,08,17,10.70
2015,10,15,08,18,10.70
2015,10,15,08,19,10.80
2015,10,15,08,20,10.80
2015,10,15,08,21,10.90
2015,10,15,08,22,11.00
2015,10,15,08,23,11.10
2015,10,15,08,24,11.10
2015,10,15,08,25,11.20
2015,10,15,08,26,11.30
2015,10,15,08,27,11.30
2015,10,15,08,28,11.40
2015,10,15,08,29,11.40
2015,10,15,08,30,11.40
2015,10,15,08,31,11.40
2015,10,15,08,32,11.60
2015,10,15,08,33,11.60
2015,10,15,08,34,11.70
2015,10,15,08,35,11.80
2015,10,15,08,36,11.90
2015,10,15,08,37,11.90
2015,10,15,08,38,12.00
2015,10,15,08,39,12.10
2015,10,15,08,40,12.20
2015,10,15,08,41,12.30
2015,10,15,08,42,12.40
2015,10,15,08,43,12.50
2015,10,15,08,44,12.60
2015,10,15,08,45,12.70
2015,10,15,08,46,12.80
2015,10,15,08,47,12.80
2015,10,15,08,48,12.90
2015,10,15,08,49,12.90
2015,10,15,08,50,12.90
2015,10,15,08,51,13.00
2015,10,15,08,52,13.00
2015,10,15,08,53,13.10
2015,10,15,08,54,13.10
2015,10,15,08,55,13.20
2015,10,15,08,56,13.20
2015,10,15,08,57,13.30
2015,10,15,08,58,13.30
2015,10,15,08,59,13.40
2015,10,15,09,00,13.40
2015,10,15,09,01,13.50
2015,10,15,09,02,13.60
2015,10,15,09,03,13.60
2015,10,15,09,04,13.60
2015,10,15,09,05,13.70
2015,10,15,09,06,13.70
2015,10,15,09,07,13.70
2015,10,15,09,08,13.70
2015,10,15,09,09,13.70
2015,10,15,09,10,13.70
2015,10,15,09,11,13.70
2015,10,15,09,12,13.80
2015,10,15,09,13,13.80
2015,10,15,09,14,13.80
2015,10,15,09,15,13.80
2015,10,15,09,16,13.80
2015,10,15,09,17,13.90
2015,10,15,09,18,13.90
2015,10,15,09,19,13.90
2015,10,15,09,20,14.00
2015,10,15,09,21,14.00
2015,10,15,09,22,14.00
2015,10,15,09,23,14.10
2015,10,15,09,24,14.10
2015,10,15,09,25,14.10
2015,10,15,09,26,14.20
2015,10,15,09,27,14.20
2015,10,15,09,28,14.20
2015,10,15,09,29,14.20
2015,10,15,09,30,14.20
2015,10,15,09,31,14.20
2015,10,15,09,32,14.20
2015,10,15,09,33,14.20
2015,10,15,09,34,14.20
2015,10,15,09,35,14.20
2015,10,15,09,36,14.30
2015,10,15,09,37,14.30
2015,10,15,09,38,14.40
2015,10,15,09,39,14.50
2015,10,15,09,40,14.50
2015,10,15,09,41,14.60
2015,10,15,09,42,14.60
2015,10,15,09,43,14.70
2015,10,15,09,44,14.70
2015,10,15,09,45,14.80
2015,10,15,09,46,14.80
2015,10,15,09,47,14.80
2015,10,15,09,48,14.80
2015,10,15,09,49,14.90
2015,10,15,09,50,15.00
2015,10,15,09,51,15.00
2015,10,15,09,52,15.00
2015,10,15,09,53,15.00
2015,10,15,09,54,15.10
2015,10,15,09,55,15.10
2015,10,15,09,56,15.10
2015,10,15,09,57,15.20
2015,10,15,09,58,15.20
2015,10,15,09,59,15.20
2015,10,15,10,00,15.30
2015,10,15,10,01,15.30
2015,10,15,10,02,15.30
2015,10,15,10,03,15.30
2015,10,15,10,04,15.30
2015,10,15,10,05,15.30
2015,10,15,10,06,15.30
2015,10,15,10,07,15.30
2015,10,15,10,08,15.40
2015,10,15,10,09,15.40
2015,10,15,10,10,15.50
2015,10,15,10,11,15.50
2015,10,15,10,12,15.50
2015,10,15,10,13,15.60
2015,10,15,10,14,15.60
2015,10,15,10,15,15.70
2015,10,15,10,16,15.70
2015,10,15,10,17,15.70
2015,10,15,10,18,15.70
2015,10,15,10,19,15.80
2015,10,15,10,20,15.80
2015,10,15,10,21,15.80
2015,10,15,10,22,15.80
2015,10,15,10,23,15.80
2015,10,15,10,24,15.80
2015,10,15,10,25,15.80
2015,10,15,10,26,15.80
2015,10,15,10,27,15.80
2015,10,15,10,28,15.80
2015,10,15,10,29,15.80
2015,10,15,10,30,15.90
2015,10,15,10,31,15.90
2015,10,15,10,32,15.90
2015,10,15,10,33,15.90
2015,10,15,10,34,16.00
2015,10,15,10,35,16.10
2015,10,15,10,36,16.00
2015,10,15,10,37,15.90
2015,10,15,10,38,15.90
2015,10,15,10,39,15.90
2015,10,15,10,40,15.90
2015,10,15,10,41,15.90
2015,10,15,10,42,15.90
2015,10,15,10,43,15.80
2015,10,15,10,44,15.80
2015,10,15,10,45,15.80
2015,10,15,10,46,15.80
2015,10,15,10,47,15.80
2015,10,15,10,48,15.80
2015,10,15,10,49,15.80
2015,10,15,10,50,15.80
2015,10,15,10,51,15.70
2015,10,15,10,52,15.80
2015,10,15,10,53,15.80
2015,10,15,10,54,15.80
2015,10,15,10,55,15.80
2015,10,15,10,56,15.80
2015,10,15,10,57,15.80
2015,10,15,10,58,15.80
2015,10,15,10,59,15.80
2015,10,15,11,00,15.80
2015,10,15,11,01,15.90
2015,10,15,11,02,15.90
2015,10,15,11,03,15.90
2015,10,15,11,04,15.90
2015,10,15,11,05,15.90
2015,10,15,11,06,16.00
2015,10,15,11,07,16.10
2015,10,15,11,08,16.10
2015,10,15,11,09,16.10
2015,10,15,11,10,16.10
2015,10,15,11,11,16.20
2015,10,15,11,12,16.20
2015,10,15,11,13,16.20
2015,10,15,11,14,16.20
2015,10,15,11,15,16.20
2015,10,15,11,16,16.20
2015,10,15,11,17,16.10
2015,10,15,11,18,16.10
2015,10,15,11,19,16.10
2015,10,15,11,20,16.10
2015,10,15,11,21,16.20
2015,10,15,11,22,16.20
2015,10,15,11,23,16.20
2015,10,15,11,24,16.30
2015,10,15,11,25,16.30
2015,10,15,11,26,16.40
2015,10,15,11,27,16.40
2015,10,15,11,28,16.50
2015,10,15,11,29,16.60
2015,10,15,11,30,16.60
2015,10,15,11,31,16.70
2015,10,15,11,32,16.70
2015,10,15,11,33,16.80
2015,10,15,11,34,16.80
2015,10,15,11,35,16.80
2015,10,15,11,36,16.90
2015,10,15,11,37,16.90
2015,10,15,11,38,16.90
2015,10,15,11,39,16.90
2015,10,15,11,40,16.90
2015,10,15,11,41,16.90
2015,10,15,11,42,17.00
2015,10,15,11,43,17.00
2015,10,15,11,44,17.10
2015,10,15,11,45,17.10
2015,10,15,11,46,17.20
2015,10,15,11,47,17.30
2015,10,15,11,48,17.30
2015,10,15,11,49,17.30
2015,10,15,11,50,17.30
2015,10,15,11,51,17.30
2015,10,15,11,52,17.30
2015,10,15,11,53,17.30
2015,10,15,11,54,17.40
2015,10,15,11,55,17.40
2015,10,15,11,56,17.50
2015,10,15,11,57,17.50
2015,10,15,11,58,17.50
2015,10,15,11,59,17.50
2015,10,15,12,00,17.50
2015,10,15,12,01,17.40
2015,10,15,12,02,17.40
2015,10,15,12,03,17.40
2015,10,15,12,04,17.40
2015,10,15,12,05,17.40
2015,10,15,12,06,17.40
2015,10,15,12,07,17.40
2015,10,15,12,08,17.40
2015,10,15,12,09,17.40
2015,10,15,12,10,17.40
2015,10,15,12,11,17.40
2015,10,15,12,12,17.40
2015,10,15,12,13,17.40
2015,10,15,12,14,17.40
2015,10,15,12,15,17.40
2015,10,15,12,16,17.40
2015,10,15,12,17,17.40
2015,10,15,12,18,17.40
2015,10,15,12,19,17.50
2015,10,15,12,20,17.50
2015,10,15,12,21,17.60
2015,10,15,12,22,17.60
2015,10,15,12,23,17.70
2015,10,15,12,24,17.80
2015,10,15,12,25,17.80
2015,10,15,12,26,17.80
2015,10,15,12,27,17.80
2015,10,15,12,28,17.90
2015,10,15,12,29,17.90
2015,10,15,12,30,17.90
2015,10,15,12,31,17.90
2015,10,15,12,32,17.90
2015,10,15,12,33,17.90
2015,10,15,12,34,17.90
2015,10,15,12,35,17.90
2015,10,15,12,36,17.90
2015,10,15,12,37,17.90
2015,10,15,12,38,17.90
2015,10,15,12,39,17.90
2015,10,15,12,40,18.00
2015,10,15,12,41,18.10
2015,10,15,12,42,18.10
2015,10,15,12,43,18.20
2015,10,15,12,44,18.20
2015,10,15,12,45,18.20
2015,10,15,12,46,18.20
2015,10,15,12,47,18.20
2015,10,15,12,48,18.20
2015,10,15,12,49,18.20
2015,10,15,12,50,18.10
2015,10,15,12,51,18.10
2015,10,15,12,52,18.10
2015,10,15,12,53,18.00
2015,10,15,12,54,18.00
2015,10,15,12,55,18.00
2015,10,15,12,56,17.90
2015,10,15,12,57,18.00
2015,10,15,12,58,18.10
2015,10,15,12,59,18.10
2015,10,15,13,00,18.20
2015,10,15,13,01,18.20
2015,10,15,13,02,18.20
2015,10,15,13,03,18.20
2015,10,15,13,04,18.30
2015,10,15,13,05,18.30
2015,10,15,13,06,18.30
2015,10,15,13,07,18.30
2015,10,15,13,08,18.30
2015,10,15,13,09,18.30
2015,10,15,13,10,18.30
2015,10,15,13,11,18.30
2015,10,15,13,12,18.30
2015,10,15,13,13,18.20
2015,10,15,13,14,18.20
2015,10,15,13,15,18.20
2015,10,15,13,16,18.20
2015,10,15,13,17,18.20
2015,10,15,13,18,18.20
2015,10,15,13,19,18.20
2015,10,15,13,20,18.20
2015,10,15,13,21,18.30
2015,10,15,13,22,18.40
2015,10,15,13,23,18.40
2015,10,15,13,24,18.40
2015,10,15,13,25,18.40
2015,10,15,13,26,18.40
2015,10,15,13,27,18.40
2015,10,15,13,28,18.40
2015,10,15,13,29,18.50
2015,10,15,13,30,18.50
2015,10,15,13,31,18.50
2015,10,15,13,32,18.50
2015,10,15,13,33,18.40
2015,10,15,13,34,18.40
2015,10,15,13,35,18.40
2015,10,15,13,36,18.40
2015,10,15,13,37,18.30
2015,10,15,13,38,18.30
2015,10,15,13,39,18.30
2015,10,15,13,40,18.40
2015,10,15,13,41,18.40
2015,10,15,13,42,18.30
2015,10,15,13,43,18.30
2015,10,15,13,44,18.40
2015,10,15,13,45,18.40
2015,10,15,13,46,18.40
2015,10,15,13,47,18.40
2015,10,15,13,48,18.50
2015,10,15,13,49,18.60
2015,10,15,13,50,18.60
2015,10,15,13,51,18.60
2015,10,15,13,52,18.70
2015,10,15,13,53,18.70
2015,10,15,13,54,18.70
2015,10,15,13,55,18.70
2015,10,15,13,56,18.80
2015,10,15,13,57,18.80
2015,10,15,13,58,18.80
2015,10,15,13,59,18.80
2015,10,15,14,00,18.80
2015,10,15,14,01,18.90
2015,10,15,14,02,18.90
2015,10,15,14,03,18.90
2015,10,15,14,04,18.90
2015,10,15,14,05,18.90
2015,10,15,14,06,18.90
2015,10,15,14,07,18.90
2015,10,15,14,08,18.80
2015,10,15,14,09,18.80
2015,10,15,14,10,18.80
2015,10,15,14,11,18.80
2015,10,15,14,12,18.80
2015,10,15,14,13,18.80
2015,10,15,14,14,18.80
2015,10,15,14,15,18.90
2015,10,15,14,16,18.90
2015,10,15,14,17,18.90
2015,10,15,14,18,18.90
2015,10,15,14,19,18.90
2015,10,15,14,20,18.90
2015,10,15,14,21,18.90
2015,10,15,14,22,18.90
2015,10,15,14,23,18.90
2015,10,15,14,24,19.10
2015,10,15,14,25,19.10
2015,10,15,14,26,19.10
2015,10,15,14,27,19.10
2015,10,15,14,28,19.10
2015,10,15,14,29,19.10
2015,10,15,14,30,19.10
2015,10,15,14,31,19.10
2015,10,15,14,32,19.10
2015,10,15,14,33,19.10
2015,10,15,14,34,19.10
2015,10,15,14,35,19.10
2015,10,15,14,36,19.10
2015,10,15,14,37,19.10
2015,10,15,14,38,19.10
2015,10,15,14,39,19.10
2015,10,15,14,40,19.10
2015,10,15,14,41,19.10
2015,10,15,14,42,19.10
2015,10,15,14,43,19.10
2015,10,15,14,44,19.10
2015,10,15,14,45,19.20
2015,10,15,14,46,19.20
2015,10,15,14,47,19.20
2015,10,15,14,48,19.20
2015,10,15,14,49,19.20
2015,10,15,14,50,19.20
2015,10,15,14,51,19.20
2015,10,15,14,52,19.20
2015,10,15,14,53,19.30
2015,10,15,14,54,19.30
2015,10,15,14,55,19.20
2015,10,15,14,56,19.20
2015,10,15,14,57,19.10
2015,10,15,14,58,19.10
2015,10,15,14,59,19.20
2015,10,15,15,00,19.20
2015,10,15,15,01,19.10
2015,10,15,15,02,19.20
2015,10,15,15,03,19.20
2015,10,15,15,04,19.20
2015,10,15,15,05,19.20
2015,10,15,15,06,19.20
2015,10,15,15,07,19.30
2015,10,15,15,08,19.30
2015,10,15,15,09,19.30
2015,10,15,15,10,19.30
2015,10,15,15,11,19.30
2015,10,15,15,12,19.20
2015,10,15,15,13,19.20
2015,10,15,15,14,19.20
2015,10,15,15,15,19.30
2015,10,15,15,16,19.30
2015,10,15,15,17,19.30
2015,10,15,15,18,19.30
2015,10,15,15,19,19.30
2015,10,15,15,20,19.30
2015,10,15,15,21,19.30
2015,10,15,15,22,19.30
2015,10,15,15,23,19.30
2015,10,15,15,24,19.30
2015,10,15,15,25,19.30
2015,10,15,15,26,19.30
2015,10,15,15,27,19.30
2015,10,15,15,28,19.20
2015,10,15,15,29,19.20
2015,10,15,15,30,19.20
2015,10,15,15,31,19.20
2015,10,15,15,32,19.20
2015,10,15,15,33,19.20
2015,10,15,15,34,19.20
2015,10,15,15,35,19.20
2015,10,15,15,36,19.20
2015,10,15,15,37,19.20
2015,10,15,15,38,19.20
2015,10,15,15,39,19.20
2015,10,15,15,40,19.30
2015,10,15,15,41,19.30
2015,10,15,15,42,19.30
2015,10,15,15,43,19.30
2015,10,15,15,44,19.30
2015,10,15,15,45,19.30
2015,10,15,15,46,19.30
2015,10,15,15,47,19.30
2015,10,15,15,48,19.30
2015,10,15,15,49,19.30
2015,10,15,15,50,19.30
2015,10,15,15,51,19.30
2015,10,15,15,52,19.30
2015,10,15,15,53,19.30
2015,10,15,15,54,19.30
2015,10,15,15,55,19.30
2015,10,15,15,56,19.20
2015,10,15,15,57,19.20
2015,10,15,15,58,19.10
2015,10,15,15,59,19.10
2015,10,15,16,00,19.10
2015,10,15,16,01,19.10
2015,10,15,16,02,19.10
2015,10,15,16,03,19.10
2015,10,15,16,04,19.10
2015,10,15,16,05,19.10
2015,10,15,16,06,19.10
2015,10,15,16,07,19.10
2015,10,15,16,08,19.10
2015,10,15,16,09,19.10
2015,10,15,16,10,19.10
2015,10,15,16,11,19.10
2015,10,15,16,12,19.10
2015,10,15,16,13,19.10
2015,10,15,16,14,19.10
2015,10,15,16,15,19.10
2015,10,15,16,16,19.10
2015,10,15,16,17,19.00
2015,10,15,16,18,18.90
2015,10,15,16,19,18.90
2015,10,15,16,20,18.90
2015,10,15,16,21,18.90
2015,10,15,16,22,18.90
2015,10,15,16,23,18.90
2015,10,15,16,24,18.90
2015,10,15,16,25,18.90
2015,10,15,16,26,18.90
2015,10,15,16,27,18.90
2015,10,15,16,28,18.90
2015,10,15,16,29,18.90
2015,10,15,16,30,18.90
2015,10,15,16,31,18.90
2015,10,15,16,32,18.90
2015,10,15,16,33,18.80
2015,10,15,16,34,18.80
2015,10,15,16,35,18.80
2015,10,15,16,36,18.80
2015,10,15,16,37,18.80
2015,10,15,16,38,18.80
2015,10,15,16,39,18.70
2015,10,15,16,40,18.70
2015,10,15,16,41,18.70
2015,10,15,16,42,18.70
2015,10,15,16,43,18.70
2015,10,15,16,44,18.70
2015,10,15,16,45,18.70
2015,10,15,16,46,18.60
2015,10,15,16,47,18.60
2015,10,15,16,48,18.60
2015,10,15,16,49,18.60
2015,10,15,16,50,18.60
2015,10,15,16,51,18.60
2015,10,15,16,52,18.60
2015,10,15,16,53,18.60
2015,10,15,16,54,18.50
2015,10,15,16,55,18.50
2015,10,15,16,56,18.50
2015,10,15,16,57,18.50
2015,10,15,16,58,18.50
2015,10,15,16,59,18.50
2015,10,15,17,00,18.50
2015,10,15,17,01,18.50
2015,10,15,17,02,18.50
2015,10,15,17,03,18.50
2015,10,15,17,04,18.50
2015,10,15,17,05,18.50
2015,10,15,17,06,18.50
2015,10,15,17,07,18.50
2015,10,15,17,08,18.50
2015,10,15,17,09,18.40
2015,10,15,17,10,18.40
2015,10,15,17,11,18.40
2015,10,15,17,12,18.40
2015,10,15,17,13,18.40
2015,10,15,17,14,18.40
2015,10,15,17,15,18.40
2015,10,15,17,16,18.40
2015,10,15,17,17,18.40
2015,10,15,17,18,18.40
2015,10,15,17,19,18.30
2015,10,15,17,20,18.30
2015,10,15,17,21,18.30
2015,10,15,17,22,18.30
2015,10,15,17,23,18.30
2015,10,15,17,24,18.30